Regional Weather Roundup
Issued by NWS Huntsville, AL

Home | Current Version | Previous Version | Text Only | Print | Product List | Glossary On
Versions: 1 2 3 4 5 6 7 8 9 10 11 12 13 14 15 16 17 18 19 20 21 22 23 24 25 26 27 28 29 30 31 32 33 34 35 36 37 38 39 40 41 42 43 44 45 46 47 48 49 50
000
ASUS44 KHUN 261110
RWRHUN

WEATHER ROUNDUP FOR THE TENNESSEE VALLEY
NATIONAL WEATHER SERVICE HUNTSVILLE AL
500 AM CST SUN FEB 26 2017

ALZ001>004-261200-
NORTHWEST ALABAMA

CITY           SKY/WX    TMP DP  RH WIND       PRES   REMARKS
SHOALS AIRPORT CLEAR     27  22  81 CALM      30.22R
$$

ALZ005>007-016-261200-
NORTH CENTRAL ALABAMA

CITY           SKY/WX    TMP DP  RH WIND       PRES   REMARKS
DECATUR AP     CLEAR     26  25  96 CALM      30.22R
HUNTSVILLE AP  PTCLDY    31  24  75 CALM      30.20R
MERIDIANVILLE  PTCLDY    30  27  86 CALM      30.19R
REDSTONE ARSN  PTCLDY    28  22  78 CALM      30.20R
VINEMONT AP    FAIR      26  22  86 CALM      30.21R
$$

ALZ008>010-261200-
NORTHEAST ALABAMA

CITY           SKY/WX    TMP DP  RH WIND       PRES   REMARKS
ALBERTVILLE    CLEAR     30  30 100 N5        30.17R WCI  25
FORT PAYNE     CLEAR     28  23  80 CALM      30.19R
SCOTTSBORO AP  CLEAR     28  23  80 CALM      30.21R
SCOTTSBORO HCN   N/A     28 N/A N/A MISG        N/A
VALLEY HEAD      N/A     25 N/A N/A MISG        N/A
$$

TNZ076-096-097-261200-
SOUTHEASTERN MIDDLE TENNESSEE

CITY           SKY/WX    TMP DP  RH WIND       PRES   REMARKS
TULLAHOMA      CLEAR     25  21  86 CALM      30.18R
WINCHESTER     CLEAR     25  21  86 CALM      30.18R
$$

...SURROUNDING SITES...

CITY           SKY/WX    TMP DP  RH WIND       PRES   REMARKS
ATLANTA        CLEAR     37  21  52 NW12      30.13R WCI  29
ANNISTON       CLEAR     30  26  85 SW3       30.19R
BIRMINGHAM     CLEAR     32  26  78 CALM      30.22R
CHATTANOOGA    CLEAR     33  22  63 CALM      30.20R
CORINTH        FAIR      27  25  93 CALM      30.19S
DALTON         CLEAR     32  27  80 NW8       30.18R WCI  25
GADSDEN        CLEAR     30  26  85 CALM      30.21R
GOLDEN TRNGL   PTCLDY    34  21  60 NE3       30.16S
HALEYVILLE     FAIR      26  23  88 CALM      30.20R
JACKSON TN     CLEAR     24  22  91 S3        30.20R
MEMPHIS        CLEAR     35  23  61 SE6       30.16F WCI  30
NASHVILLE      CLEAR     28  22  78 S3        30.22R
OXFORD MS      FAIR      28  23  80 SE7       30.21R WCI  21
ROME           CLEAR     32  23  69 CALM      30.18R
SAVANNAH       CLEAR     23  23 100 CALM      30.20R
TUPELO         CLEAR     30  25  81 CALM      30.22R
TUSCALOOSA     PTCLDY    32  26  78 NE5       30.22R WCI  27
$$

...GULF COAST WEATHER...

CITY           SKY/WX    TMP DP  RH WIND       PRES   REMARKS
GULFPORT       MOCLDY    43  31  62 NE3       30.15R
PASCAGOULA     PTCLDY    38  32  79 CALM      30.16R
MOBILE         CLEAR     42  28  57 NE6       30.16R
GULF SHORES    SUNNY     42  31  64 NE5       30.15R
PENSACOLA      MOCLDY    47  28  47 NE9       30.14R
DESTIN         CLEAR     51  32  48 NE10      30.14R
PANAMA CITY    CLEAR     49  29  47 N12       30.14R
APPALACHICOLA  CLEAR     50  29  44 NE12      30.12R
$$




USA.gov is the U.S. government's official web portal to all federal, state and local government web resources and services.